Simultaneous Nadir Overpasses (SNOs) Predictions

Prediction of SNOs between GOES-17 and METOP-B Satellite Orbit:

Table of predicted SNOs for the next 14.0 days since TLE Epoch: 8/29/2020
Index Date Time (GOES-17) GOES-17 Lat,Lon METOP-B Lat,Lon Distance(km) Time Diff (sec)
1 08/29/2020 18:49:44 -0.02,-137.20 0.65,-140.16 337.82 80
2 08/30/2020 18:31:45 -0.02,-137.19 -0.50,-135.17 230.97 80
3 09/01/2020 06:48:04 0.03,-137.18 -0.55,-139.76 293.80 80
4 09/02/2020 06:30:05 0.03,-137.18 0.60,-134.77 274.82 80
5 09/03/2020 18:46:15 -0.04,-137.17 0.43,-139.33 245.90 80
6 09/04/2020 18:28:15 -0.03,-137.16 -0.66,-134.33 322.60 80
7 09/06/2020 06:44:35 0.03,-137.15 -0.33,-138.93 202.66 80
8 09/07/2020 06:26:35 0.03,-137.13 0.75,-133.93 365.41 80
9 09/08/2020 18:42:45 -0.03,-137.11 0.27,-138.48 156.43 80
10 09/09/2020 18:24:44 -0.03,-137.10 -0.81,-133.48 411.17 80
11 09/11/2020 06:41:05 0.03,-137.07 -0.17,-138.09 115.54 80
